ACA4723 SKBO-GOBD

Flight info

Callsign ACA4723
Flight time 7h 8m
Altitude 37000
Route MAVDA UW20 AUC DCT MIQ UN669 ELJEZ/M083F370 DCT 2150N DCT 2340N/M083F390 DCT 22N036W DCT ERNEK/N0478F390 DCT EVKAS DCT BVT DCT MOGSA DCT PIVSA PIVSA1D
Aircraft B77L/H-SDE1E2E3FGHIJ2J3J4J5M1RWXY/LB1D1

Departure

Time 2026-04-25 11:15
Airport El Dorado International Airport (SKBO)

Arrival

Time 2026-04-25 18:24
Airport Blaise Diagne International Airport (GOBD)
Time Latitude Longitude Altitude Speed Heading
2026-04-25 10:17 4.69885 -74.14441 8343 ft 0 kts 220°
2026-04-25 10:27 4.69886 -74.14440 8370 ft 0 kts 220°
2026-04-25 10:27 4.69887 -74.14439 8370 ft 0 kts 220°
2026-04-25 10:48 4.69896 -74.14431 8370 ft 0 kts 220°
2026-04-25 10:50 4.69900 -74.14428 8371 ft 2 kts 220°
2026-04-25 10:50 4.69913 -74.14417 8371 ft 2 kts 218°
2026-04-25 10:50 4.69926 -74.14407 8371 ft 2 kts 218°
2026-04-25 10:51 4.69932 -74.14399 8371 ft 2 kts 295°
2026-04-25 10:51 4.69941 -74.14411 8371 ft 2 kts 308°
2026-04-25 10:51 4.69945 -74.14416 8371 ft 0 kts 308°
2026-04-25 10:54 4.69955 -74.14428 8371 ft 5 kts 308°
2026-04-25 10:54 4.69989 -74.14472 8370 ft 9 kts 307°
2026-04-25 10:55 4.70026 -74.14522 8371 ft 9 kts 307°
2026-04-25 10:55 4.70063 -74.14571 8371 ft 9 kts 307°
2026-04-25 10:55 4.70102 -74.14618 8371 ft 9 kts 315°
2026-04-25 10:55 4.70145 -74.14662 8370 ft 9 kts 308°
2026-04-25 10:56 4.70140 -74.14719 8370 ft 9 kts 228°
2026-04-25 10:56 4.70092 -74.14757 8370 ft 9 kts 219°
2026-04-25 10:56 4.70044 -74.14796 8370 ft 9 kts 219°
2026-04-25 10:56 4.69989 -74.14837 8369 ft 12 kts 216°
2026-04-25 10:57 4.69903 -74.14901 8369 ft 18 kts 216°
2026-04-25 10:57 4.69857 -74.14960 8369 ft 7 kts 269°
2026-04-25 10:57 4.69877 -74.15006 8369 ft 7 kts 303°
2026-04-25 10:57 4.69910 -74.15052 8369 ft 10 kts 306°
2026-04-25 10:58 4.69958 -74.15118 8369 ft 13 kts 306°
2026-04-25 10:58 4.70024 -74.15204 8369 ft 18 kts 307°
2026-04-25 10:58 4.70113 -74.15320 8368 ft 24 kts 307°
2026-04-25 10:58 4.70221 -74.15464 8368 ft 26 kts 307°
2026-04-25 10:59 4.70332 -74.15612 8368 ft 26 kts 307°
2026-04-25 10:59 4.70443 -74.15758 8368 ft 26 kts 308°
2026-04-25 10:59 4.70556 -74.15904 8368 ft 26 kts 307°
2026-04-25 10:59 4.70654 -74.16034 8367 ft 16 kts 307°
2026-04-25 11:00 4.70723 -74.16126 8367 ft 16 kts 307°
2026-04-25 11:00 4.70792 -74.16217 8367 ft 16 kts 307°
2026-04-25 11:00 4.70861 -74.16308 8367 ft 16 kts 307°
2026-04-25 11:00 4.70931 -74.16400 8367 ft 16 kts 307°
2026-04-25 11:01 4.71000 -74.16492 8367 ft 16 kts 307°
2026-04-25 11:01 4.71070 -74.16584 8367 ft 16 kts 307°
2026-04-25 11:01 4.71139 -74.16675 8366 ft 16 kts 307°
2026-04-25 11:01 4.71187 -74.16739 8366 ft 0 kts 307°
2026-04-25 11:02 4.71189 -74.16742 8366 ft 2 kts 307°
2026-04-25 11:02 4.71201 -74.16757 8366 ft 4 kts 307°
2026-04-25 11:02 4.71223 -74.16787 8366 ft 7 kts 307°
2026-04-25 11:02 4.71240 -74.16833 8366 ft 8 kts 269°
2026-04-25 11:03 4.71229 -74.16863 8366 ft 0 kts 227°
2026-04-25 11:13 4.71187 -74.16890 8366 ft 13 kts 197°
2026-04-25 11:13 4.71073 -74.16890 8365 ft 17 kts 174°
2026-04-25 11:13 4.71007 -74.16852 8366 ft 10 kts 128°
2026-04-25 11:14 4.70964 -74.16798 8366 ft 13 kts 128°
2026-04-25 11:14 4.70783 -74.16558 8367 ft 76 kts 127°
2026-04-25 11:14 4.70324 -74.15956 8368 ft 140 kts 127°
2026-04-25 11:14 4.69616 -74.15026 8369 ft 197 kts 127°
2026-04-25 11:15 4.68740 -74.13867 8812 ft 205 kts 126°
2026-04-25 11:15 4.67847 -74.12712 9293 ft 218 kts 135°
2026-04-25 11:15 4.66516 -74.11951 9248 ft 232 kts 170°
2026-04-25 11:15 4.64895 -74.12029 9517 ft 242 kts 199°
2026-04-25 11:16 4.62507 -74.14537 9714 ft 274 kts 255°
2026-04-25 11:16 4.62176 -74.16464 9959 ft 287 kts 263°
2026-04-25 11:16 4.61901 -74.18479 10421 ft 295 kts 262°
2026-04-25 11:17 4.61590 -74.20527 10988 ft 298 kts 262°
2026-04-25 11:17 4.61371 -74.21892 11417 ft 299 kts 260°
2026-04-25 11:17 4.60845 -74.24620 12257 ft 300 kts 259°
2026-04-25 11:17 4.60431 -74.26681 12845 ft 301 kts 257°
2026-04-25 11:18 4.59596 -74.28577 13233 ft 306 kts 229°
2026-04-25 11:18 4.58013 -74.30010 13693 ft 309 kts 220°
2026-04-25 11:18 4.56384 -74.31445 14220 ft 313 kts 224°
2026-04-25 11:18 4.55343 -74.32455 14569 ft 314 kts 225°
2026-04-25 11:19 4.53804 -74.34009 15123 ft 314 kts 225°
2026-04-25 11:19 4.52057 -74.35325 15506 ft 319 kts 204°
2026-04-25 11:19 4.49970 -74.36086 15882 ft 320 kts 206°
2026-04-25 11:19 4.48039 -74.37250 16305 ft 325 kts 216°
2026-04-25 11:20 4.46185 -74.38565 16877 ft 326 kts 215°
2026-04-25 11:20 4.44302 -74.39815 17406 ft 328 kts 213°
2026-04-25 11:20 4.42352 -74.41040 17910 ft 331 kts 212°
2026-04-25 11:20 4.40360 -74.42249 18403 ft 334 kts 211°
2026-04-25 11:21 4.38375 -74.43436 18832 ft 337 kts 211°
2026-04-25 11:21 4.36348 -74.44644 19255 ft 340 kts 211°
2026-04-25 11:21 4.34225 -74.45674 19570 ft 342 kts 194°
2026-04-25 11:21 4.31839 -74.45821 19863 ft 347 kts 169°
2026-04-25 11:22 4.29577 -74.45017 20132 ft 355 kts 147°
2026-04-25 11:22 4.27738 -74.43341 20339 ft 364 kts 123°
2026-04-25 11:22 4.26697 -74.41029 20675 ft 366 kts 101°
2026-04-25 11:22 4.26237 -74.38518 21081 ft 368 kts 99°
2026-04-25 11:23 4.25839 -74.35969 21528 ft 370 kts 98°
2026-04-25 11:23 4.25452 -74.33408 22012 ft 372 kts 98°
2026-04-25 11:23 4.25059 -74.30831 22480 ft 374 kts 98°
2026-04-25 11:23 4.24659 -74.28273 22907 ft 377 kts 98°
2026-04-25 11:24 4.24242 -74.25666 23329 ft 380 kts 98°
2026-04-25 11:24 4.23815 -74.23035 23770 ft 383 kts 98°
2026-04-25 11:24 4.23382 -74.20391 24176 ft 385 kts 99°
2026-04-25 11:24 4.22945 -74.17739 24548 ft 386 kts 99°
2026-04-25 11:25 4.22505 -74.15075 24947 ft 388 kts 99°
2026-04-25 11:25 4.22063 -74.12397 25350 ft 389 kts 99°
2026-04-25 11:25 4.21625 -74.09744 25739 ft 390 kts 99°
2026-04-25 11:25 4.21181 -74.07057 26143 ft 392 kts 99°
2026-04-25 11:26 4.20735 -74.04356 26531 ft 393 kts 99°
2026-04-25 11:26 4.20312 -74.01654 26882 ft 392 kts 94°
2026-04-25 11:26 4.20525 -73.98924 27079 ft 397 kts 72°
2026-04-25 11:26 4.21679 -73.96410 27351 ft 399 kts 57°
2026-04-25 11:27 4.23316 -73.94147 27709 ft 401 kts 51°
2026-04-25 11:27 4.25116 -73.91999 28065 ft 403 kts 49°
2026-04-25 11:27 4.26978 -73.89883 28429 ft 405 kts 49°
2026-04-25 11:27 4.28226 -73.88488 28654 ft 407 kts 49°
2026-04-25 11:28 4.30758 -73.85682 29089 ft 411 kts 49°
2026-04-25 11:28 4.32705 -73.83534 29125 ft 417 kts 49°
2026-04-25 11:28 4.36604 -73.79259 29144 ft 412 kts 48°
2026-04-25 11:29 4.40475 -73.75035 29183 ft 422 kts 48°
2026-04-25 11:29 4.42478 -73.72830 29187 ft 433 kts 49°
2026-04-25 11:29 4.44510 -73.70526 29188 ft 445 kts 50°
2026-04-25 11:30 4.46578 -73.68157 29196 ft 456 kts 50°
2026-04-25 11:30 4.48688 -73.65741 29218 ft 466 kts 50°
2026-04-25 11:30 4.53040 -73.60793 29381 ft 482 kts 49°
2026-04-25 11:31 4.57569 -73.55683 29491 ft 496 kts 49°
2026-04-25 11:31 4.62193 -73.50480 29624 ft 506 kts 49°
2026-04-25 11:32 4.64548 -73.47831 29796 ft 508 kts 49°
2026-04-25 11:32 4.66903 -73.45181 30046 ft 508 kts 49°
2026-04-25 11:32 4.69224 -73.42567 30349 ft 506 kts 49°
2026-04-25 11:32 4.71572 -73.39923 30649 ft 504 kts 49°
2026-04-25 11:33 4.73885 -73.37317 30942 ft 503 kts 50°
2026-04-25 11:33 4.76216 -73.34691 31213 ft 502 kts 50°
2026-04-25 11:33 4.78543 -73.32069 31498 ft 502 kts 50°
2026-04-25 11:33 4.80869 -73.29448 31785 ft 501 kts 50°
2026-04-25 11:34 4.83152 -73.26875 32073 ft 499 kts 50°
2026-04-25 11:34 4.85463 -73.24270 32339 ft 499 kts 50°
2026-04-25 11:34 4.87768 -73.21671 32595 ft 498 kts 50°
2026-04-25 11:34 4.90079 -73.19065 32863 ft 497 kts 50°
2026-04-25 11:35 4.92386 -73.16463 33127 ft 497 kts 50°
2026-04-25 11:35 4.94683 -73.13873 33392 ft 496 kts 50°
2026-04-25 11:35 4.96950 -73.11316 33650 ft 495 kts 50°
2026-04-25 11:35 4.99237 -73.08736 33900 ft 494 kts 51°
2026-04-25 11:36 5.01529 -73.06151 34124 ft 494 kts 51°
2026-04-25 11:36 5.03822 -73.03564 34306 ft 494 kts 51°
2026-04-25 11:36 5.06078 -73.01017 34506 ft 494 kts 51°
2026-04-25 11:36 5.08368 -72.98432 34700 ft 493 kts 51°
2026-04-25 11:37 5.10652 -72.95855 34889 ft 492 kts 51°
2026-04-25 11:37 5.12904 -72.93314 35009 ft 494 kts 51°
2026-04-25 11:37 5.17483 -72.88142 35084 ft 494 kts 51°
2026-04-25 11:38 5.22072 -72.82959 35093 ft 499 kts 50°
2026-04-25 11:38 5.26704 -72.77725 35095 ft 505 kts 50°
2026-04-25 11:39 5.31381 -72.72440 35091 ft 511 kts 50°
2026-04-25 11:39 5.36136 -72.67068 35066 ft 514 kts 50°
2026-04-25 11:40 5.40875 -72.61711 35043 ft 516 kts 50°
2026-04-25 11:40 5.45650 -72.56314 35029 ft 516 kts 50°
2026-04-25 11:41 5.50426 -72.50912 35023 ft 516 kts 50°
2026-04-25 11:41 5.55149 -72.45570 35041 ft 511 kts 50°
2026-04-25 11:42 5.59893 -72.40203 35047 ft 513 kts 50°
2026-04-25 11:42 5.64603 -72.34870 35051 ft 512 kts 51°
2026-04-25 11:43 5.69341 -72.29504 35046 ft 513 kts 51°
2026-04-25 11:43 5.74067 -72.24154 35033 ft 514 kts 51°
2026-04-25 11:44 5.78814 -72.18775 35030 ft 515 kts 51°
2026-04-25 11:44 5.83574 -72.13381 35021 ft 515 kts 51°
2026-04-25 11:45 5.88313 -72.08010 35017 ft 516 kts 51°
2026-04-25 11:45 5.93082 -72.02603 35010 ft 516 kts 51°
2026-04-25 11:46 5.97823 -71.97227 35005 ft 516 kts 51°
2026-04-25 11:46 6.02591 -71.91818 35001 ft 516 kts 51°
2026-04-25 11:47 6.07320 -71.86454 34993 ft 515 kts 51°
2026-04-25 11:47 6.12080 -71.81050 34985 ft 515 kts 51°
2026-04-25 11:48 6.16839 -71.75647 34984 ft 515 kts 51°
2026-04-25 11:48 6.21586 -71.70255 34970 ft 514 kts 51°
2026-04-25 11:49 6.26306 -71.64893 34970 ft 514 kts 51°
2026-04-25 11:49 6.31059 -71.59493 34971 ft 514 kts 51°
2026-04-25 11:50 6.35772 -71.54135 34965 ft 514 kts 51°
2026-04-25 11:50 6.40522 -71.48734 34965 ft 514 kts 51°
2026-04-25 11:51 6.45228 -71.43381 34961 ft 514 kts 51°
2026-04-25 11:51 6.49978 -71.37976 34966 ft 516 kts 51°
2026-04-25 11:52 6.54722 -71.32576 34966 ft 516 kts 51°
2026-04-25 11:52 6.59493 -71.27144 34975 ft 519 kts 51°
2026-04-25 11:53 6.64283 -71.21689 34964 ft 519 kts 51°
2026-04-25 11:53 6.69044 -71.16267 34960 ft 519 kts 51°
2026-04-25 11:54 6.73839 -71.10802 34962 ft 519 kts 50°
2026-04-25 11:55 6.81012 -71.02624 34964 ft 519 kts 50°
2026-04-25 11:55 6.85770 -70.97198 34960 ft 519 kts 50°
2026-04-25 11:56 6.90556 -70.91737 34949 ft 519 kts 50°
2026-04-25 11:56 6.95313 -70.86308 34946 ft 519 kts 50°
2026-04-25 11:57 7.00103 -70.80838 34943 ft 519 kts 50°
2026-04-25 11:57 7.04867 -70.75397 34939 ft 520 kts 50°
2026-04-25 11:58 7.09722 -70.69975 34941 ft 521 kts 48°
2026-04-25 11:58 7.14789 -70.64736 34944 ft 522 kts 47°
2026-04-25 11:59 7.19858 -70.59554 34951 ft 522 kts 47°
2026-04-25 11:59 7.24937 -70.54299 34958 ft 523 kts 47°
2026-04-25 12:00 7.32505 -70.46398 34975 ft 523 kts 47°
2026-04-25 12:01 7.40108 -70.38452 34976 ft 524 kts 47°
2026-04-25 12:01 7.45149 -70.33184 34976 ft 524 kts 47°
2026-04-25 12:02 7.52722 -70.25269 34977 ft 523 kts 47°
2026-04-25 12:02 7.57777 -70.19983 34984 ft 523 kts 47°
2026-04-25 12:03 7.62809 -70.14719 34980 ft 523 kts 47°
2026-04-25 12:03 7.67878 -70.09415 34980 ft 523 kts 47°
2026-04-25 12:04 7.72078 -70.05018 34976 ft 523 kts 47°
2026-04-25 12:04 7.77950 -69.98869 34980 ft 523 kts 47°
2026-04-25 12:05 7.82154 -69.94466 34982 ft 523 kts 47°
2026-04-25 12:05 7.87210 -69.89166 34978 ft 523 kts 47°
2026-04-25 12:06 7.92225 -69.83910 34984 ft 523 kts 47°
2026-04-25 12:06 7.97277 -69.78611 34984 ft 523 kts 47°
2026-04-25 12:07 8.02327 -69.73313 34983 ft 524 kts 47°
2026-04-25 12:07 8.07386 -69.68004 34986 ft 524 kts 47°
2026-04-25 12:08 8.12425 -69.62713 34984 ft 525 kts 47°
2026-04-25 12:08 8.17495 -69.57388 34985 ft 525 kts 47°
2026-04-25 12:09 8.22571 -69.52054 34986 ft 526 kts 47°
2026-04-25 12:09 8.27627 -69.46740 34983 ft 526 kts 47°
2026-04-25 12:10 8.32676 -69.41430 34984 ft 526 kts 47°
2026-04-25 12:10 8.37749 -69.36093 34982 ft 526 kts 47°
2026-04-25 12:11 8.42832 -69.30745 34983 ft 526 kts 47°
2026-04-25 12:11 8.47907 -69.25401 34982 ft 526 kts 47°
2026-04-25 12:12 8.52943 -69.20097 34983 ft 526 kts 47°
2026-04-25 12:12 8.58010 -69.14758 34981 ft 526 kts 47°
2026-04-25 12:13 8.63091 -69.09402 34986 ft 526 kts 47°
2026-04-25 12:13 8.68134 -69.04084 34984 ft 526 kts 47°
2026-04-25 12:14 8.73187 -68.98753 34986 ft 526 kts 47°
2026-04-25 12:14 8.78270 -68.93388 34986 ft 527 kts 47°
2026-04-25 12:15 8.83336 -68.88039 34982 ft 527 kts 47°
2026-04-25 12:15 8.88398 -68.82692 34982 ft 527 kts 47°
2026-04-25 12:16 8.93460 -68.77342 34979 ft 528 kts 47°
2026-04-25 12:16 8.98558 -68.71952 34980 ft 528 kts 47°
2026-04-25 12:17 9.03644 -68.66573 34980 ft 528 kts 47°
2026-04-25 12:17 9.08699 -68.61224 34984 ft 528 kts 47°
2026-04-25 12:18 9.13777 -68.55848 34982 ft 529 kts 47°
2026-04-25 12:18 9.18870 -68.50453 34980 ft 529 kts 47°
2026-04-25 12:19 9.26472 -68.42398 34979 ft 529 kts 47°
2026-04-25 12:20 9.31570 -68.36993 34981 ft 529 kts 47°
2026-04-25 12:20 9.36637 -68.31618 34979 ft 529 kts 47°
2026-04-25 12:21 9.41728 -68.26216 34981 ft 529 kts 47°
2026-04-25 12:21 9.46796 -68.20834 34983 ft 530 kts 47°
2026-04-25 12:22 9.51885 -68.15429 34984 ft 530 kts 47°
2026-04-25 12:22 9.56988 -68.10006 34990 ft 530 kts 47°
2026-04-25 12:23 9.62061 -68.04613 34992 ft 531 kts 47°
2026-04-25 12:23 9.67159 -67.99189 34994 ft 531 kts 47°
2026-04-25 12:24 9.72261 -67.93760 35002 ft 531 kts 47°
2026-04-25 12:24 9.77363 -67.88328 35002 ft 532 kts 47°
2026-04-25 12:25 9.82438 -67.82922 35000 ft 532 kts 47°
2026-04-25 12:25 9.87553 -67.77470 35013 ft 532 kts 47°
2026-04-25 12:26 9.92658 -67.72028 35013 ft 533 kts 47°
2026-04-25 12:26 9.97749 -67.66597 35014 ft 533 kts 47°
2026-04-25 12:27 10.02875 -67.61126 35013 ft 533 kts 47°
2026-04-25 12:27 10.07960 -67.55696 35017 ft 533 kts 47°
2026-04-25 12:28 10.13080 -67.50226 35013 ft 533 kts 47°
2026-04-25 12:28 10.18174 -67.44782 35026 ft 534 kts 47°
2026-04-25 12:29 10.23304 -67.39296 35025 ft 534 kts 47°
2026-04-25 12:29 10.28433 -67.33808 35021 ft 535 kts 47°
2026-04-25 12:30 10.33536 -67.28345 35019 ft 535 kts 47°
2026-04-25 12:30 10.38670 -67.22846 35009 ft 536 kts 47°
2026-04-25 12:31 10.43780 -67.17370 34984 ft 537 kts 47°
2026-04-25 12:31 10.48932 -67.11846 34960 ft 537 kts 47°
2026-04-25 12:32 10.54083 -67.06320 34937 ft 537 kts 47°
2026-04-25 12:32 10.59201 -67.00827 34941 ft 537 kts 47°
2026-04-25 12:33 10.63937 -66.94972 34941 ft 535 kts 57°
2026-04-25 12:33 10.67971 -66.88645 34948 ft 535 kts 58°
2026-04-25 12:34 10.72046 -66.82287 34957 ft 536 kts 58°
2026-04-25 12:34 10.76191 -66.76019 34962 ft 537 kts 57°
2026-04-25 12:35 10.80392 -66.69730 34967 ft 537 kts 57°
2026-04-25 12:35 10.84594 -66.63426 34961 ft 537 kts 57°
2026-04-25 12:36 10.88765 -66.57152 34961 ft 538 kts 57°
2026-04-25 12:36 10.92967 -66.50823 34959 ft 538 kts 57°
2026-04-25 12:37 10.97164 -66.44498 34954 ft 539 kts 57°
2026-04-25 12:37 11.01346 -66.38194 34958 ft 539 kts 57°
2026-04-25 12:38 11.05580 -66.31865 34961 ft 540 kts 57°
2026-04-25 12:38 11.09334 -66.26353 34959 ft 540 kts 57°
2026-04-25 12:39 11.13604 -66.20087 34961 ft 540 kts 57°
2026-04-25 12:39 11.17869 -66.13804 34963 ft 541 kts 57°
2026-04-25 12:40 11.22157 -66.07472 34962 ft 541 kts 57°
2026-04-25 12:40 11.26416 -66.01179 34963 ft 542 kts 57°
2026-04-25 12:41 11.30715 -65.94824 34965 ft 542 kts 57°
2026-04-25 12:41 11.34980 -65.88517 34965 ft 542 kts 57°
2026-04-25 12:42 11.39234 -65.82220 34964 ft 542 kts 57°
2026-04-25 12:42 11.43514 -65.75882 34966 ft 542 kts 57°
2026-04-25 12:43 11.47793 -65.69540 34965 ft 541 kts 57°
2026-04-25 12:43 11.54176 -65.60065 34964 ft 540 kts 57°
2026-04-25 12:44 11.58428 -65.53747 34966 ft 540 kts 57°
2026-04-25 12:45 11.64793 -65.44281 34969 ft 539 kts 57°
2026-04-25 12:45 11.71181 -65.34877 34969 ft 539 kts 56°
2026-04-25 12:46 11.75537 -65.28615 34971 ft 539 kts 56°
2026-04-25 12:46 11.79865 -65.22386 34973 ft 539 kts 56°
2026-04-25 12:47 11.84167 -65.16165 34971 ft 538 kts 56°
2026-04-25 12:47 11.88502 -65.09884 34969 ft 538 kts 56°
2026-04-25 12:48 11.92800 -65.03652 34969 ft 538 kts 56°
2026-04-25 12:48 11.97115 -64.97393 34966 ft 538 kts 56°
2026-04-25 12:49 12.01405 -64.91167 34970 ft 538 kts 56°
2026-04-25 12:49 12.05721 -64.84901 34972 ft 538 kts 56°
2026-04-25 12:50 12.10003 -64.78678 34969 ft 538 kts 56°
2026-04-25 12:50 12.14312 -64.72412 34973 ft 537 kts 56°
2026-04-25 12:51 12.18613 -64.66154 34971 ft 537 kts 56°
2026-04-25 12:51 12.22900 -64.59911 34972 ft 537 kts 56°
2026-04-25 12:52 12.27177 -64.53680 34971 ft 537 kts 56°
2026-04-25 12:52 12.31474 -64.47415 34975 ft 537 kts 56°
2026-04-25 12:53 12.35742 -64.41188 34975 ft 537 kts 56°
2026-04-25 12:53 12.40005 -64.34910 34972 ft 537 kts 56°
2026-04-25 12:54 12.44233 -64.28630 34976 ft 537 kts 57°
2026-04-25 12:54 12.47766 -64.23381 34972 ft 538 kts 56°
2026-04-25 12:55 12.51300 -64.18137 34973 ft 538 kts 56°
2026-04-25 12:55 12.56253 -64.10787 34978 ft 538 kts 56°
2026-04-25 12:56 12.60523 -64.04444 34977 ft 539 kts 57°
2026-04-25 12:56 12.64753 -63.98157 34979 ft 539 kts 57°
2026-04-25 12:57 12.69020 -63.91809 34978 ft 540 kts 57°
2026-04-25 12:57 12.73285 -63.85461 34978 ft 540 kts 57°
2026-04-25 12:58 12.77529 -63.79139 34979 ft 540 kts 57°
2026-04-25 12:58 12.81799 -63.72781 34979 ft 541 kts 57°
2026-04-25 12:59 12.86051 -63.66468 34982 ft 541 kts 57°
2026-04-25 12:59 12.90612 -63.60305 34972 ft 542 kts 51°
2026-04-25 13:00 12.94661 -63.55381 34982 ft 542 kts 51°
2026-04-25 13:00 13.00349 -63.48492 34980 ft 543 kts 51°
2026-04-25 13:01 13.05155 -63.42549 34984 ft 543 kts 52°
2026-04-25 13:01 13.09928 -63.36584 34979 ft 543 kts 52°
2026-04-25 13:02 13.14734 -63.30570 34983 ft 544 kts 52°
2026-04-25 13:02 13.19551 -63.24547 34987 ft 544 kts 52°
2026-04-25 13:03 13.24353 -63.18545 34984 ft 545 kts 52°
2026-04-25 13:03 13.29167 -63.12524 34981 ft 545 kts 52°
2026-04-25 13:04 13.33961 -63.06523 34984 ft 546 kts 52°
2026-04-25 13:04 13.38779 -63.00488 34983 ft 546 kts 52°
2026-04-25 13:05 13.43579 -62.94470 34987 ft 546 kts 52°
2026-04-25 13:05 13.48402 -62.88419 34987 ft 546 kts 52°
2026-04-25 13:06 13.53204 -62.82392 34986 ft 547 kts 52°
2026-04-25 13:06 13.58030 -62.76329 34987 ft 547 kts 52°
2026-04-25 13:07 13.62848 -62.70271 34986 ft 547 kts 52°
2026-04-25 13:07 13.67644 -62.64238 34985 ft 547 kts 52°
2026-04-25 13:08 13.72479 -62.58151 34988 ft 548 kts 52°
2026-04-25 13:08 13.77280 -62.52103 34987 ft 548 kts 52°
2026-04-25 13:09 13.82121 -62.46000 34990 ft 549 kts 52°
2026-04-25 13:09 13.86933 -62.39928 34988 ft 549 kts 52°
2026-04-25 13:10 13.91770 -62.33821 34989 ft 549 kts 52°
2026-04-25 13:10 13.96583 -62.27740 34988 ft 550 kts 52°
2026-04-25 13:11 14.01431 -62.21610 34990 ft 550 kts 52°
2026-04-25 13:11 14.06238 -62.15527 34991 ft 550 kts 52°
2026-04-25 13:12 14.11071 -62.09407 34993 ft 551 kts 52°
2026-04-25 13:12 14.15109 -62.04290 34991 ft 551 kts 52°
2026-04-25 13:13 14.20745 -61.97144 34988 ft 551 kts 52°
2026-04-25 13:13 14.25581 -61.91006 34992 ft 551 kts 52°
2026-04-25 13:14 14.30397 -61.84890 34990 ft 552 kts 52°
2026-04-25 13:14 14.35244 -61.78728 34993 ft 552 kts 52°
2026-04-25 13:15 14.40074 -61.72585 34993 ft 552 kts 52°
2026-04-25 13:15 14.44896 -61.66446 34993 ft 552 kts 52°
2026-04-25 13:16 14.49731 -61.60286 34993 ft 552 kts 52°
2026-04-25 13:16 14.54544 -61.54149 34995 ft 552 kts 52°
2026-04-25 13:17 14.59382 -61.47977 34992 ft 552 kts 52°
2026-04-25 13:17 14.64214 -61.41806 34998 ft 552 kts 52°
2026-04-25 13:18 14.69023 -61.35661 34999 ft 552 kts 52°
2026-04-25 13:18 14.73858 -61.29476 34999 ft 552 kts 52°
2026-04-25 13:19 14.78697 -61.23282 35000 ft 552 kts 52°
2026-04-25 13:19 14.82718 -61.18131 35004 ft 552 kts 52°
2026-04-25 13:20 14.88321 -61.10948 34999 ft 553 kts 52°
2026-04-25 13:20 14.93156 -61.04749 35000 ft 553 kts 51°
2026-04-25 13:21 14.97968 -60.98577 35006 ft 553 kts 51°
2026-04-25 13:21 15.02801 -60.92369 35006 ft 553 kts 51°
2026-04-25 13:22 15.07617 -60.86178 35007 ft 553 kts 51°
2026-04-25 13:23 15.14841 -60.76881 35001 ft 554 kts 51°
2026-04-25 13:23 15.19674 -60.70655 35005 ft 554 kts 51°
2026-04-25 13:24 15.24500 -60.64434 35004 ft 554 kts 51°
2026-04-25 13:24 15.29336 -60.58195 35001 ft 554 kts 51°
2026-04-25 13:25 15.34139 -60.51993 35002 ft 555 kts 51°
2026-04-25 13:25 15.38983 -60.45733 35004 ft 555 kts 51°
2026-04-25 13:26 15.43803 -60.39499 35004 ft 555 kts 51°
2026-04-25 13:26 15.48607 -60.33279 35005 ft 556 kts 51°
2026-04-25 13:27 15.53445 -60.27011 35008 ft 556 kts 51°
2026-04-25 13:27 15.58263 -60.20765 35001 ft 556 kts 51°
2026-04-25 13:28 15.63104 -60.14481 35004 ft 557 kts 51°
2026-04-25 13:28 15.67924 -60.08222 35012 ft 557 kts 51°
2026-04-25 13:29 15.72771 -60.01921 35006 ft 557 kts 51°
2026-04-25 13:29 15.77613 -59.95621 35003 ft 557 kts 51°
2026-04-25 13:30 15.84852 -59.86193 35006 ft 558 kts 51°
2026-04-25 13:31 15.92100 -59.76741 35009 ft 558 kts 51°
2026-04-25 13:31 15.96946 -59.70414 35008 ft 558 kts 51°
2026-04-25 13:32 16.01750 -59.64137 35011 ft 558 kts 51°
2026-04-25 13:32 16.06583 -59.57816 35015 ft 558 kts 51°
2026-04-25 13:33 16.11430 -59.51470 35014 ft 558 kts 51°
2026-04-25 13:33 16.16249 -59.45157 35016 ft 558 kts 51°
2026-04-25 13:34 16.21089 -59.38812 35007 ft 558 kts 51°
2026-04-25 13:34 16.25897 -59.32502 35013 ft 559 kts 51°
2026-04-25 13:35 16.30715 -59.26173 35016 ft 559 kts 51°
2026-04-25 13:35 16.35555 -59.19808 35020 ft 559 kts 51°
2026-04-25 13:36 16.40365 -59.13477 35020 ft 559 kts 51°
2026-04-25 13:36 16.45164 -59.07155 35021 ft 558 kts 51°
2026-04-25 13:37 16.49993 -59.00788 35022 ft 558 kts 51°
2026-04-25 13:37 16.54799 -58.94446 35017 ft 558 kts 51°
2026-04-25 13:38 16.59620 -58.88078 35025 ft 558 kts 51°
2026-04-25 13:38 16.64416 -58.81736 35020 ft 558 kts 51°
2026-04-25 13:39 16.69239 -58.75354 35017 ft 558 kts 51°
2026-04-25 13:39 16.74050 -58.68982 35024 ft 558 kts 51°
2026-04-25 13:40 16.78828 -58.62648 35024 ft 558 kts 51°
2026-04-25 13:40 16.83637 -58.56267 35020 ft 558 kts 51°
2026-04-25 13:41 16.88446 -58.49880 35019 ft 558 kts 51°
2026-04-25 13:41 16.93221 -58.43532 35025 ft 558 kts 51°
2026-04-25 13:42 16.98028 -58.37136 35031 ft 558 kts 51°
2026-04-25 13:42 17.02807 -58.30771 35029 ft 558 kts 51°
2026-04-25 13:43 17.07612 -58.24366 35025 ft 559 kts 51°
2026-04-25 13:43 17.11601 -58.19044 35031 ft 559 kts 51°
2026-04-25 13:44 17.17179 -58.11595 35031 ft 559 kts 51°
2026-04-25 13:44 17.21173 -58.06255 35028 ft 559 kts 51°
2026-04-25 13:45 17.25967 -57.99841 35028 ft 559 kts 51°
2026-04-25 13:45 17.30772 -57.93407 35032 ft 560 kts 51°
2026-04-25 13:46 17.35549 -57.87004 35030 ft 560 kts 51°
2026-04-25 13:46 17.40324 -57.80597 35033 ft 560 kts 51°
2026-04-25 13:47 17.45130 -57.74143 35029 ft 560 kts 51°
2026-04-25 13:47 17.49936 -57.67682 35031 ft 561 kts 51°
2026-04-25 13:48 17.54704 -57.61265 35036 ft 561 kts 51°
2026-04-25 13:48 17.59512 -57.54789 35038 ft 561 kts 51°
2026-04-25 13:49 17.64289 -57.48349 35037 ft 562 kts 51°
2026-04-25 13:49 17.69096 -57.41863 35033 ft 562 kts 51°
2026-04-25 13:50 17.73900 -57.35377 35043 ft 562 kts 51°
2026-04-25 13:50 17.78669 -57.28927 35044 ft 562 kts 51°
2026-04-25 13:51 17.83482 -57.22412 35040 ft 563 kts 51°
2026-04-25 13:51 17.88251 -57.15951 35045 ft 563 kts 51°
2026-04-25 13:52 17.93042 -57.09452 35035 ft 563 kts 51°
2026-04-25 13:52 17.97846 -57.02930 35040 ft 563 kts 51°
2026-04-25 13:53 18.02175 -56.96136 35045 ft 562 kts 65°
2026-04-25 13:53 18.05365 -56.88630 35054 ft 562 kts 66°
2026-04-25 13:54 18.08570 -56.81173 35045 ft 562 kts 65°
2026-04-25 13:54 18.11912 -56.73713 35044 ft 563 kts 65°
2026-04-25 13:55 18.15302 -56.66272 35048 ft 563 kts 65°
2026-04-25 13:55 18.18669 -56.58874 35056 ft 563 kts 65°
2026-04-25 13:56 18.22049 -56.51409 35056 ft 564 kts 65°
2026-04-25 13:56 18.25399 -56.43986 35052 ft 564 kts 65°
2026-04-25 13:57 18.28771 -56.36506 35039 ft 564 kts 65°
2026-04-25 13:57 18.32112 -56.29086 35038 ft 564 kts 65°
2026-04-25 13:58 18.35482 -56.21596 35060 ft 564 kts 65°
2026-04-25 13:58 18.38811 -56.14187 35046 ft 564 kts 65°
2026-04-25 13:59 18.42166 -56.06709 35046 ft 563 kts 65°
2026-04-25 13:59 18.45499 -55.99273 35054 ft 563 kts 65°
2026-04-25 14:00 18.48848 -55.91789 35047 ft 563 kts 65°
2026-04-25 14:00 18.52173 -55.84351 35048 ft 563 kts 65°
2026-04-25 14:01 18.55517 -55.76861 35057 ft 563 kts 65°
2026-04-25 14:01 18.58861 -55.69362 35055 ft 563 kts 65°
2026-04-25 14:02 18.62184 -55.61899 35048 ft 564 kts 65°
2026-04-25 14:02 18.65504 -55.54436 35066 ft 564 kts 65°
2026-04-25 14:03 18.68836 -55.46934 35056 ft 564 kts 65°
2026-04-25 14:03 18.72167 -55.39425 35051 ft 564 kts 65°
2026-04-25 14:04 18.75475 -55.31958 35061 ft 564 kts 65°
2026-04-25 14:04 18.78806 -55.24431 35056 ft 564 kts 65°
2026-04-25 14:05 18.82108 -55.16958 35059 ft 564 kts 65°
2026-04-25 14:05 18.85431 -55.09427 35059 ft 564 kts 65°
2026-04-25 14:06 18.88729 -55.01945 35057 ft 564 kts 65°
2026-04-25 14:06 18.92048 -54.94404 35055 ft 564 kts 65°
2026-04-25 14:07 18.95345 -54.86905 35056 ft 565 kts 65°
2026-04-25 14:07 18.98662 -54.79348 35059 ft 565 kts 65°
2026-04-25 14:08 19.01947 -54.71857 35061 ft 565 kts 65°
2026-04-25 14:08 19.05255 -54.64301 35062 ft 565 kts 65°
2026-04-25 14:09 19.08563 -54.56736 35060 ft 565 kts 65°
2026-04-25 14:09 19.11848 -54.49215 35062 ft 566 kts 65°
2026-04-25 14:10 19.15154 -54.41634 35060 ft 566 kts 65°
2026-04-25 14:10 19.18433 -54.34105 35062 ft 566 kts 65°
2026-04-25 14:11 19.21729 -54.26526 35061 ft 566 kts 65°
2026-04-25 14:11 19.25023 -54.18942 35061 ft 566 kts 65°
2026-04-25 14:12 19.28298 -54.11394 35063 ft 567 kts 65°
2026-04-25 14:12 19.31588 -54.03798 35065 ft 567 kts 65°
2026-04-25 14:13 19.34860 -53.96236 35062 ft 567 kts 65°
2026-04-25 14:13 19.38151 -53.88617 35058 ft 567 kts 65°
2026-04-25 14:14 19.41436 -53.81003 35061 ft 568 kts 65°
2026-04-25 14:14 19.44703 -53.73421 35064 ft 568 kts 65°
2026-04-25 14:15 19.47985 -53.65792 35065 ft 568 kts 65°
2026-04-25 14:15 19.51266 -53.58157 35067 ft 568 kts 65°
2026-04-25 14:16 19.54522 -53.50567 35065 ft 569 kts 65°
2026-04-25 14:16 19.57797 -53.42924 35066 ft 569 kts 65°
2026-04-25 14:17 19.61076 -53.35260 35064 ft 569 kts 65°
2026-04-25 14:17 19.64330 -53.27645 35068 ft 569 kts 65°
2026-04-25 14:18 19.67605 -53.19969 35065 ft 569 kts 65°
2026-04-25 14:18 19.70856 -53.12339 35068 ft 569 kts 65°
2026-04-25 14:19 19.74118 -53.04672 35065 ft 570 kts 65°
2026-04-25 14:19 19.77383 -52.96987 35067 ft 570 kts 65°
2026-04-25 14:20 19.80642 -52.89306 35067 ft 570 kts 65°
2026-04-25 14:20 19.83881 -52.81663 35068 ft 570 kts 65°
2026-04-25 14:21 19.87141 -52.73957 35066 ft 570 kts 65°
2026-04-25 14:21 19.90394 -52.66256 35067 ft 570 kts 65°
2026-04-25 14:22 19.93623 -52.58603 35069 ft 570 kts 65°
2026-04-25 14:22 19.96870 -52.50895 35068 ft 571 kts 65°
2026-04-25 14:23 20.00102 -52.43212 35070 ft 571 kts 65°
2026-04-25 14:23 20.03352 -52.35477 35070 ft 571 kts 65°
2026-04-25 14:24 20.06570 -52.27804 35069 ft 571 kts 65°
2026-04-25 14:24 20.09814 -52.20060 35070 ft 571 kts 65°
2026-04-25 14:25 20.13035 -52.12359 35068 ft 572 kts 65°
2026-04-25 14:25 20.16269 -52.04615 35071 ft 572 kts 65°
2026-04-25 14:26 20.19490 -51.96890 35070 ft 572 kts 65°
2026-04-25 14:26 20.22724 -51.89126 35068 ft 572 kts 65°
2026-04-25 14:27 20.25936 -51.81401 35068 ft 573 kts 65°
2026-04-25 14:27 20.29174 -51.73602 35068 ft 573 kts 65°
2026-04-25 14:28 20.32382 -51.65862 35069 ft 573 kts 65°
2026-04-25 14:28 20.35589 -51.58117 35068 ft 574 kts 65°
2026-04-25 14:29 20.38811 -51.50322 35069 ft 574 kts 65°
2026-04-25 14:29 20.42028 -51.42527 35069 ft 574 kts 65°
2026-04-25 14:30 20.45243 -51.34727 35068 ft 574 kts 65°
2026-04-25 14:30 20.50045 -51.23052 35070 ft 575 kts 65°
2026-04-25 14:31 20.52716 -51.16549 35068 ft 575 kts 65°
2026-04-25 14:31 20.55912 -51.08754 35067 ft 575 kts 65°
2026-04-25 14:32 20.59132 -51.00891 35071 ft 575 kts 65°
2026-04-25 14:32 20.62316 -50.93100 35077 ft 575 kts 65°
2026-04-25 14:33 20.65523 -50.85244 35072 ft 576 kts 65°
2026-04-25 14:33 20.68708 -50.77429 35071 ft 576 kts 65°
2026-04-25 14:34 20.71909 -50.69565 35070 ft 576 kts 65°
2026-04-25 14:34 20.75087 -50.61743 35078 ft 576 kts 65°
2026-04-25 14:35 20.78284 -50.53862 35073 ft 576 kts 65°
2026-04-25 14:35 20.81474 -50.45986 35076 ft 577 kts 65°
2026-04-25 14:36 20.84660 -50.38109 35073 ft 577 kts 65°
2026-04-25 14:36 20.87822 -50.30277 35076 ft 577 kts 65°
2026-04-25 14:37 20.91005 -50.22383 35078 ft 577 kts 65°
2026-04-25 14:37 20.94169 -50.14522 35077 ft 577 kts 65°
2026-04-25 14:38 20.97345 -50.06619 35075 ft 577 kts 65°
2026-04-25 14:38 21.00465 -49.98697 35072 ft 578 kts 70°
2026-04-25 14:39 21.02514 -49.90404 35077 ft 578 kts 77°
2026-04-25 14:39 21.04271 -49.81997 35074 ft 578 kts 77°
2026-04-25 14:40 21.06110 -49.73604 35076 ft 579 kts 76°
2026-04-25 14:40 21.08028 -49.65269 35080 ft 579 kts 75°
2026-04-25 14:41 21.09982 -49.56878 35080 ft 579 kts 75°
2026-04-25 14:41 21.11922 -49.48493 35080 ft 580 kts 75°
2026-04-25 14:42 21.13524 -49.41518 35079 ft 580 kts 75°
2026-04-25 14:42 21.15757 -49.31754 35077 ft 580 kts 75°
2026-04-25 14:43 21.17674 -49.23355 35078 ft 580 kts 75°
2026-04-25 14:43 21.19587 -49.14953 35079 ft 579 kts 75°
2026-04-25 14:44 21.21486 -49.06601 35079 ft 579 kts 75°
2026-04-25 14:44 21.23389 -48.98203 35081 ft 579 kts 75°
2026-04-25 14:45 21.25280 -48.89844 35083 ft 579 kts 75°
2026-04-25 14:45 21.27177 -48.81434 35078 ft 579 kts 75°
2026-04-25 14:46 21.29056 -48.73085 35080 ft 579 kts 75°
2026-04-25 14:46 21.30944 -48.64672 35080 ft 579 kts 75°
2026-04-25 14:47 21.32510 -48.57682 35081 ft 579 kts 75°
2026-04-25 14:47 21.34697 -48.47891 35086 ft 579 kts 75°
2026-04-25 14:48 21.36564 -48.39514 35086 ft 579 kts 75°
2026-04-25 14:48 21.38436 -48.31090 35085 ft 579 kts 75°
2026-04-25 14:49 21.40300 -48.22685 35085 ft 578 kts 75°
2026-04-25 14:49 21.42155 -48.14297 35088 ft 578 kts 75°
2026-04-25 14:50 21.44002 -48.05924 35087 ft 578 kts 75°
2026-04-25 14:50 21.45856 -47.97495 35087 ft 578 kts 75°
2026-04-25 14:51 21.47695 -47.89118 35089 ft 578 kts 75°
2026-04-25 14:51 21.49540 -47.80693 35089 ft 578 kts 75°
2026-04-25 14:52 21.51370 -47.72310 35088 ft 578 kts 75°
2026-04-25 14:52 21.52897 -47.65300 35088 ft 578 kts 75°
2026-04-25 14:53 21.55026 -47.55506 35093 ft 578 kts 75°
2026-04-25 14:53 21.56849 -47.47093 35090 ft 579 kts 75°
2026-04-25 14:54 21.58678 -47.38634 35090 ft 579 kts 75°
2026-04-25 14:54 21.60490 -47.30227 35089 ft 579 kts 75°
2026-04-25 14:55 21.62309 -47.21767 35090 ft 579 kts 75°
2026-04-25 14:55 21.64115 -47.13348 35089 ft 579 kts 75°
2026-04-25 14:56 21.65914 -47.04941 35094 ft 579 kts 75°
2026-04-25 14:56 21.67718 -46.96482 35089 ft 579 kts 75°
2026-04-25 14:57 21.69515 -46.88039 35090 ft 579 kts 75°
2026-04-25 14:57 21.71302 -46.79618 35092 ft 579 kts 75°
2026-04-25 14:58 21.73095 -46.71148 35097 ft 579 kts 75°
2026-04-25 14:58 21.74875 -46.62718 35095 ft 579 kts 75°
2026-04-25 14:59 21.76659 -46.54246 35096 ft 579 kts 75°
2026-04-25 14:59 21.78428 -46.45822 35100 ft 579 kts 75°
2026-04-25 15:00 21.80196 -46.37380 35101 ft 580 kts 75°
2026-04-25 15:00 21.81967 -46.28902 35096 ft 580 kts 75°
2026-04-25 15:01 21.83735 -46.20416 35097 ft 580 kts 75°
2026-04-25 15:01 21.85491 -46.11965 35095 ft 580 kts 75°
2026-04-25 15:02 21.87250 -46.03473 35105 ft 580 kts 75°
2026-04-25 15:02 21.88995 -45.95033 35108 ft 580 kts 75°
2026-04-25 15:03 21.90748 -45.86523 35103 ft 580 kts 75°
2026-04-25 15:03 21.92488 -45.78060 35103 ft 581 kts 75°
2026-04-25 15:04 21.94232 -45.69548 35100 ft 581 kts 75°
2026-04-25 15:04 21.95962 -45.61086 35105 ft 581 kts 75°
2026-04-25 15:05 21.97699 -45.52561 35106 ft 581 kts 75°
2026-04-25 15:06 22.00285 -45.39832 35100 ft 581 kts 75°
2026-04-25 15:06 22.02003 -45.31342 35099 ft 581 kts 75°
2026-04-25 15:07 22.03725 -45.22813 35105 ft 581 kts 75°
2026-04-25 15:07 22.05441 -45.14287 35105 ft 581 kts 75°
2026-04-25 15:08 22.07145 -45.05796 35101 ft 581 kts 75°
2026-04-25 15:08 22.08854 -44.97260 35103 ft 581 kts 75°
2026-04-25 15:09 22.10548 -44.88771 35106 ft 581 kts 75°
2026-04-25 15:09 22.13100 -44.75939 35099 ft 582 kts 75°
2026-04-25 15:10 22.14785 -44.67435 35100 ft 582 kts 75°
2026-04-25 15:11 22.17306 -44.54667 35102 ft 582 kts 75°
2026-04-25 15:11 22.18994 -44.46091 35103 ft 582 kts 75°
2026-04-25 15:12 22.21501 -44.33304 35104 ft 582 kts 75°
2026-04-25 15:12 22.22620 -44.27574 35104 ft 582 kts 75°
2026-04-25 15:13 22.25665 -44.11937 35109 ft 582 kts 75°
2026-04-25 15:14 22.27328 -44.03361 35111 ft 582 kts 75°
2026-04-25 15:14 22.28978 -43.94825 35109 ft 582 kts 76°
2026-04-25 15:15 22.30626 -43.86279 35106 ft 583 kts 76°
2026-04-25 15:15 22.32278 -43.77683 35108 ft 583 kts 76°
2026-04-25 15:16 22.33913 -43.69153 35113 ft 583 kts 76°
2026-04-25 15:16 22.36375 -43.56254 35114 ft 584 kts 76°
2026-04-25 15:17 22.38822 -43.43381 35114 ft 584 kts 76°
2026-04-25 15:18 22.40443 -43.34820 35110 ft 584 kts 76°
2026-04-25 15:18 22.42876 -43.21917 35113 ft 584 kts 76°
2026-04-25 15:19 22.43952 -43.16195 35115 ft 584 kts 76°
2026-04-25 15:19 22.46106 -43.04705 35113 ft 585 kts 76°
2026-04-25 15:20 22.47449 -42.97516 35116 ft 585 kts 76°
2026-04-25 15:20 22.49049 -42.88926 35112 ft 585 kts 76°
2026-04-25 15:21 22.50652 -42.80291 35113 ft 585 kts 76°
2026-04-25 15:21 22.52251 -42.71655 35113 ft 585 kts 76°
2026-04-25 15:22 22.53836 -42.63066 35113 ft 585 kts 76°
2026-04-25 15:22 22.55429 -42.54411 35112 ft 585 kts 76°
2026-04-25 15:23 22.57004 -42.45821 35112 ft 585 kts 76°
2026-04-25 15:23 22.58588 -42.37159 35113 ft 585 kts 76°
2026-04-25 15:24 22.60155 -42.28564 35114 ft 585 kts 76°
2026-04-25 15:24 22.61464 -42.21358 35111 ft 585 kts 76°
2026-04-25 15:25 22.63298 -42.11235 35112 ft 585 kts 76°
2026-04-25 15:25 22.64852 -42.02626 35113 ft 586 kts 76°
2026-04-25 15:26 22.66411 -41.93963 35114 ft 586 kts 76°
2026-04-25 15:26 22.67958 -41.85336 35115 ft 586 kts 76°
2026-04-25 15:27 22.69508 -41.76667 35118 ft 586 kts 76°
2026-04-25 15:28 22.71820 -41.63683 35119 ft 586 kts 76°
2026-04-25 15:28 22.73361 -41.54996 35120 ft 587 kts 76°
2026-04-25 15:29 22.74893 -41.46327 35114 ft 587 kts 76°
2026-04-25 15:29 22.76427 -41.37625 35114 ft 587 kts 76°
2026-04-25 15:30 22.77948 -41.28961 35113 ft 587 kts 76°
2026-04-25 15:30 22.79474 -41.20241 35112 ft 588 kts 76°
2026-04-25 15:31 22.80996 -41.11516 35122 ft 588 kts 76°
2026-04-25 15:31 22.82505 -41.02839 35125 ft 588 kts 76°
2026-04-25 15:32 22.84021 -40.94088 35117 ft 589 kts 76°
2026-04-25 15:32 22.85524 -40.85385 35125 ft 589 kts 76°
2026-04-25 15:33 22.87774 -40.72302 35117 ft 589 kts 76°
2026-04-25 15:33 22.89274 -40.63540 35122 ft 590 kts 76°
2026-04-25 15:34 22.90761 -40.54831 35117 ft 590 kts 76°
2026-04-25 15:34 22.92000 -40.47545 35122 ft 590 kts 76°
2026-04-25 15:35 22.94480 -40.32902 35119 ft 590 kts 76°
2026-04-25 15:36 22.96691 -40.19776 35120 ft 591 kts 76°
2026-04-25 15:36 22.98155 -40.11048 35120 ft 591 kts 76°
2026-04-25 15:37 22.99587 -40.02217 35112 ft 591 kts 81°
2026-04-25 15:37 22.99670 -39.97798 35108 ft 595 kts 96°
2026-04-25 15:37 22.98891 -39.93393 35128 ft 594 kts 107°
2026-04-25 15:38 22.96235 -39.84902 35133 ft 593 kts 107°
2026-04-25 15:38 22.94138 -39.76255 35125 ft 597 kts 103°
2026-04-25 15:39 22.92210 -39.67460 35130 ft 599 kts 103°
2026-04-25 15:39 22.90209 -39.58701 35126 ft 601 kts 104°
2026-04-25 15:40 22.88824 -39.52870 35124 ft 602 kts 105°
2026-04-25 15:40 22.85994 -39.41151 35118 ft 602 kts 105°
2026-04-25 15:41 22.83869 -39.32352 35119 ft 602 kts 105°
2026-04-25 15:41 22.81766 -39.23621 35116 ft 601 kts 105°
2026-04-25 15:42 22.79647 -39.14841 35115 ft 600 kts 105°
2026-04-25 15:42 22.77529 -39.06090 35115 ft 599 kts 105°
2026-04-25 15:43 22.75420 -38.97401 35118 ft 598 kts 105°
2026-04-25 15:43 22.73292 -38.88662 35122 ft 598 kts 105°
2026-04-25 15:44 22.71178 -38.79996 35119 ft 598 kts 105°
2026-04-25 15:44 22.69043 -38.71268 35125 ft 598 kts 105°
2026-04-25 15:45 22.66916 -38.62595 35119 ft 598 kts 105°
2026-04-25 15:45 22.65482 -38.56761 35123 ft 598 kts 105°
2026-04-25 15:46 22.62631 -38.45191 35120 ft 599 kts 105°
2026-04-25 15:46 22.60470 -38.36442 35121 ft 599 kts 105°
2026-04-25 15:47 22.58323 -38.27776 35124 ft 600 kts 105°
2026-04-25 15:47 22.56151 -38.19032 35121 ft 600 kts 105°
2026-04-25 15:48 22.53979 -38.10305 35118 ft 600 kts 105°
2026-04-25 15:48 22.51815 -38.01634 35113 ft 600 kts 105°
2026-04-25 15:49 22.49640 -37.92942 35113 ft 600 kts 105°
2026-04-25 15:49 22.47460 -37.84247 35116 ft 600 kts 105°
2026-04-25 15:50 22.45267 -37.75523 35113 ft 600 kts 105°
2026-04-25 15:50 22.43068 -37.66799 35120 ft 599 kts 105°
2026-04-25 15:51 22.41614 -37.61042 35117 ft 599 kts 105°
2026-04-25 15:51 22.38684 -37.49467 35110 ft 599 kts 105°
2026-04-25 15:52 22.36474 -37.40762 35115 ft 599 kts 105°
2026-04-25 15:52 22.34275 -37.32121 35114 ft 599 kts 105°
2026-04-25 15:53 22.32053 -37.23409 35114 ft 599 kts 105°
2026-04-25 15:53 22.29845 -37.14773 35109 ft 599 kts 105°
2026-04-25 15:54 22.27617 -37.06082 35118 ft 599 kts 105°
2026-04-25 15:54 22.25398 -36.97445 35116 ft 599 kts 105°
2026-04-25 15:55 22.23159 -36.88753 35115 ft 599 kts 105°
2026-04-25 15:55 22.20931 -36.80120 35113 ft 599 kts 105°
2026-04-25 15:56 22.18680 -36.71420 35113 ft 600 kts 105°
2026-04-25 15:56 22.16434 -36.62762 35110 ft 600 kts 105°
2026-04-25 15:57 22.14195 -36.54152 35107 ft 600 kts 105°
2026-04-25 15:57 22.11937 -36.45484 35116 ft 600 kts 105°
2026-04-25 15:58 22.09681 -36.36848 35113 ft 600 kts 105°
2026-04-25 15:58 22.07411 -36.28177 35109 ft 600 kts 105°
2026-04-25 15:59 22.05133 -36.19494 35111 ft 600 kts 105°
2026-04-25 15:59 22.02866 -36.10872 35108 ft 600 kts 105°
2026-04-25 16:00 22.01352 -36.05124 35106 ft 600 kts 105°
2026-04-25 16:00 21.98025 -35.93698 35104 ft 599 kts 111°
2026-04-25 16:01 21.95006 -35.85368 35113 ft 599 kts 112°
2026-04-25 16:01 21.91930 -35.77022 35097 ft 599 kts 112°
2026-04-25 16:02 21.88926 -35.68635 35114 ft 599 kts 111°
2026-04-25 16:02 21.85967 -35.60238 35118 ft 599 kts 111°
2026-04-25 16:03 21.83023 -35.51884 35099 ft 599 kts 111°
2026-04-25 16:03 21.80048 -35.43485 35097 ft 599 kts 111°
2026-04-25 16:04 21.77064 -35.35094 35112 ft 599 kts 111°
2026-04-25 16:04 21.74097 -35.26770 35099 ft 599 kts 111°
2026-04-25 16:05 21.71107 -35.18393 35107 ft 599 kts 111°
2026-04-25 16:06 21.66619 -35.05843 35102 ft 598 kts 112°
2026-04-25 16:06 21.63643 -34.97539 35103 ft 598 kts 112°
2026-04-25 16:07 21.60658 -34.89226 35102 ft 598 kts 112°
2026-04-25 16:07 21.57652 -34.80872 35103 ft 598 kts 112°
2026-04-25 16:08 21.54647 -34.72535 35102 ft 597 kts 112°
2026-04-25 16:08 21.51658 -34.64255 35101 ft 597 kts 112°
2026-04-25 16:09 21.48662 -34.55970 35103 ft 597 kts 112°
2026-04-25 16:09 21.45643 -34.47637 35100 ft 597 kts 112°
2026-04-25 16:10 21.42629 -34.39334 35100 ft 596 kts 112°
2026-04-25 16:10 21.40133 -34.32468 35101 ft 596 kts 112°
2026-04-25 16:11 21.37107 -34.24160 35097 ft 596 kts 112°
2026-04-25 16:11 21.34100 -34.15915 35097 ft 596 kts 112°
2026-04-25 16:12 21.31073 -34.07632 35099 ft 595 kts 112°
2026-04-25 16:12 21.28047 -33.99364 35098 ft 595 kts 112°
2026-04-25 16:13 21.25012 -33.91088 35098 ft 595 kts 112°
2026-04-25 16:13 21.22001 -33.82891 35094 ft 595 kts 112°
2026-04-25 16:14 21.18963 -33.74636 35095 ft 594 kts 112°
2026-04-25 16:14 21.15924 -33.66391 35091 ft 594 kts 112°
2026-04-25 16:15 21.12895 -33.58186 35095 ft 593 kts 112°
2026-04-25 16:15 21.09853 -33.49962 35092 ft 593 kts 112°
2026-04-25 16:16 21.06824 -33.41789 35090 ft 592 kts 112°
2026-04-25 16:16 21.03776 -33.33574 35092 ft 592 kts 112°
2026-04-25 16:17 21.00739 -33.25406 35091 ft 592 kts 112°
2026-04-25 16:17 20.97683 -33.17198 35088 ft 591 kts 112°
2026-04-25 16:18 20.94647 -33.09060 35086 ft 591 kts 112°
2026-04-25 16:18 20.91593 -33.00888 35089 ft 591 kts 112°
2026-04-25 16:19 20.88557 -32.92774 35085 ft 590 kts 112°
2026-04-25 16:19 20.85492 -32.84600 35081 ft 590 kts 113°
2026-04-25 16:20 20.80901 -32.72378 35085 ft 590 kts 113°
2026-04-25 16:21 20.76319 -32.60212 35080 ft 589 kts 113°
2026-04-25 16:21 20.73267 -32.52125 35080 ft 589 kts 113°
2026-04-25 16:22 20.70184 -32.43971 35084 ft 588 kts 113°
2026-04-25 16:22 20.67133 -32.35913 35078 ft 588 kts 113°
2026-04-25 16:23 20.64051 -32.27787 35074 ft 588 kts 113°
2026-04-25 16:23 20.60993 -32.19735 35076 ft 588 kts 113°
2026-04-25 16:24 20.57905 -32.11619 35079 ft 588 kts 113°
2026-04-25 16:24 20.54824 -32.03534 35070 ft 588 kts 113°
2026-04-25 16:25 20.51752 -31.95485 35071 ft 588 kts 113°
2026-04-25 16:25 20.48664 -31.87408 35070 ft 587 kts 113°
2026-04-25 16:26 20.45572 -31.79331 35069 ft 587 kts 113°
2026-04-25 16:26 20.42496 -31.71311 35070 ft 586 kts 114°
2026-04-25 16:27 20.39155 -31.63371 35069 ft 585 kts 117°
2026-04-25 16:27 20.35641 -31.55605 35069 ft 585 kts 117°
2026-04-25 16:28 20.32110 -31.47765 35063 ft 584 kts 117°
2026-04-25 16:28 20.28658 -31.39962 35064 ft 584 kts 116°
2026-04-25 16:29 20.25206 -31.32107 35065 ft 584 kts 116°
2026-04-25 16:29 20.21778 -31.24321 35060 ft 583 kts 116°
2026-04-25 16:30 20.18320 -31.16496 35058 ft 583 kts 116°
2026-04-25 16:30 20.14858 -31.08679 35059 ft 582 kts 116°
2026-04-25 16:31 20.11413 -31.00912 35058 ft 582 kts 116°
2026-04-25 16:31 20.07950 -30.93115 35065 ft 583 kts 116°
2026-04-25 16:32 20.04493 -30.85341 35069 ft 585 kts 116°
2026-04-25 16:32 20.00997 -30.77492 35062 ft 588 kts 116°
2026-04-25 16:33 19.97480 -30.69604 35061 ft 590 kts 116°
2026-04-25 16:33 19.93967 -30.61739 35057 ft 591 kts 116°
2026-04-25 16:34 19.90431 -30.53833 35056 ft 591 kts 116°
2026-04-25 16:34 19.86914 -30.45980 35054 ft 590 kts 116°
2026-04-25 16:35 19.83382 -30.38105 35050 ft 589 kts 116°
2026-04-25 16:35 19.79868 -30.30281 35051 ft 587 kts 116°
2026-04-25 16:36 19.76343 -30.22445 35053 ft 585 kts 116°
2026-04-25 16:36 19.72852 -30.14693 35049 ft 584 kts 116°
2026-04-25 16:37 19.69335 -30.06895 35049 ft 583 kts 116°
2026-04-25 16:37 19.65843 -29.99165 35045 ft 582 kts 117°
2026-04-25 16:38 19.62359 -29.91463 35047 ft 581 kts 117°
2026-04-25 16:38 19.58852 -29.83721 35046 ft 581 kts 117°
2026-04-25 16:39 19.55347 -29.75993 35046 ft 581 kts 117°
2026-04-25 16:39 19.51859 -29.68313 35041 ft 581 kts 117°
2026-04-25 16:40 19.48342 -29.60579 35041 ft 581 kts 117°
2026-04-25 16:40 19.44824 -29.52855 35042 ft 581 kts 117°
2026-04-25 16:41 19.41315 -29.45159 35038 ft 581 kts 117°
2026-04-25 16:41 19.36045 -29.33624 35039 ft 581 kts 117°
2026-04-25 16:42 19.32510 -29.25898 35040 ft 581 kts 117°
2026-04-25 16:42 19.28985 -29.18206 35039 ft 581 kts 117°
2026-04-25 16:43 19.25449 -29.10498 35035 ft 580 kts 117°
2026-04-25 16:43 19.21941 -29.02863 35029 ft 580 kts 117°
2026-04-25 16:44 19.18402 -28.95171 35033 ft 579 kts 117°
2026-04-25 16:44 19.14875 -28.87514 35031 ft 579 kts 117°
2026-04-25 16:45 19.11362 -28.79898 35030 ft 578 kts 117°
2026-04-25 16:45 19.07828 -28.72247 35025 ft 578 kts 117°
2026-04-25 16:46 19.04310 -28.64638 35025 ft 577 kts 117°
2026-04-25 16:46 19.01970 -28.59585 35023 ft 577 kts 117°
2026-04-25 16:47 18.97259 -28.49424 35023 ft 576 kts 117°
2026-04-25 16:47 18.93743 -28.41851 35026 ft 575 kts 117°
2026-04-25 16:48 18.90229 -28.34292 35025 ft 575 kts 117°
2026-04-25 16:48 18.86694 -28.26698 35020 ft 575 kts 117°
2026-04-25 16:49 18.83162 -28.19122 35018 ft 574 kts 117°
2026-04-25 16:49 18.79648 -28.11592 35018 ft 574 kts 117°
2026-04-25 16:50 18.76105 -28.04010 35015 ft 574 kts 117°
2026-04-25 16:50 18.72583 -27.96482 35018 ft 573 kts 117°
2026-04-25 16:51 18.69054 -27.88949 35016 ft 573 kts 117°
2026-04-25 16:51 18.66692 -27.83913 35016 ft 573 kts 117°
2026-04-25 16:52 18.61982 -27.73882 35013 ft 572 kts 117°
2026-04-25 16:52 18.58461 -27.66396 35013 ft 572 kts 117°
2026-04-25 16:53 18.53155 -27.55131 35010 ft 571 kts 117°
2026-04-25 16:54 18.49639 -27.47677 35011 ft 571 kts 117°
2026-04-25 16:54 18.46083 -27.40148 35010 ft 571 kts 117°
2026-04-25 16:55 18.42542 -27.32661 35010 ft 571 kts 117°
2026-04-25 16:55 18.39027 -27.25238 35006 ft 570 kts 117°
2026-04-25 16:56 18.35487 -27.17771 35005 ft 570 kts 117°
2026-04-25 16:56 18.31941 -27.10300 35004 ft 570 kts 117°
2026-04-25 16:57 18.28405 -27.02861 35001 ft 570 kts 118°
2026-04-25 16:57 18.24864 -26.95417 35000 ft 569 kts 118°
2026-04-25 16:58 18.21304 -26.87945 34994 ft 569 kts 118°
2026-04-25 16:58 18.17754 -26.80503 34997 ft 568 kts 118°
2026-04-25 16:59 18.14217 -26.73097 34998 ft 568 kts 118°
2026-04-25 16:59 18.10683 -26.65705 34992 ft 567 kts 118°
2026-04-25 17:00 18.07127 -26.58278 34994 ft 567 kts 118°
2026-04-25 17:00 18.04202 -26.52173 34993 ft 567 kts 118°
2026-04-25 17:01 18.00639 -26.44748 34992 ft 566 kts 118°
2026-04-25 17:01 17.97081 -26.37339 34995 ft 566 kts 118°
2026-04-25 17:02 17.93533 -26.29961 34989 ft 565 kts 118°
2026-04-25 17:02 17.89985 -26.22593 34992 ft 565 kts 118°
2026-04-25 17:03 17.86453 -26.15265 34994 ft 565 kts 118°
2026-04-25 17:03 17.82896 -26.07891 34988 ft 565 kts 118°
2026-04-25 17:04 17.79335 -26.00539 34987 ft 565 kts 119°
2026-04-25 17:04 17.75626 -25.93319 34987 ft 565 kts 121°
2026-04-25 17:05 17.71802 -25.86093 34985 ft 564 kts 121°
2026-04-25 17:05 17.66130 -25.75299 34988 ft 564 kts 120°
2026-04-25 17:06 17.62360 -25.68074 34985 ft 564 kts 120°
2026-04-25 17:06 17.58594 -25.60857 34988 ft 564 kts 121°
2026-04-25 17:07 17.54819 -25.53638 34983 ft 563 kts 121°
2026-04-25 17:07 17.51073 -25.46487 34982 ft 563 kts 121°
2026-04-25 17:08 17.47295 -25.39283 34978 ft 562 kts 121°
2026-04-25 17:08 17.43518 -25.32089 34981 ft 562 kts 121°
2026-04-25 17:09 17.39765 -25.24948 34981 ft 561 kts 121°
2026-04-25 17:09 17.36013 -25.17816 34979 ft 561 kts 121°
2026-04-25 17:10 17.32246 -25.10664 34980 ft 560 kts 121°
2026-04-25 17:10 17.28477 -25.03514 34979 ft 560 kts 121°
2026-04-25 17:11 17.24705 -24.96368 34984 ft 559 kts 121°
2026-04-25 17:11 17.20960 -24.89280 34976 ft 559 kts 121°
2026-04-25 17:12 17.17186 -24.82146 34979 ft 559 kts 121°
2026-04-25 17:12 17.13436 -24.75064 34978 ft 559 kts 121°
2026-04-25 17:13 17.10296 -24.69140 34976 ft 559 kts 121°
2026-04-25 17:13 17.05901 -24.60857 34973 ft 559 kts 121°
2026-04-25 17:14 17.02124 -24.53746 34968 ft 559 kts 121°
2026-04-25 17:14 16.98359 -24.46667 34964 ft 559 kts 121°
2026-04-25 17:15 16.94587 -24.39580 34961 ft 559 kts 121°
2026-04-25 17:15 16.90798 -24.32471 34951 ft 559 kts 121°
2026-04-25 17:16 16.87005 -24.25359 34954 ft 560 kts 121°
2026-04-25 17:16 16.83231 -24.18293 34957 ft 560 kts 121°
2026-04-25 17:17 16.79430 -24.11181 34959 ft 560 kts 121°
2026-04-25 17:17 16.75650 -24.04116 34959 ft 560 kts 121°
2026-04-25 17:18 16.71840 -23.97004 34959 ft 560 kts 121°
2026-04-25 17:18 16.68051 -23.89938 34957 ft 560 kts 121°
2026-04-25 17:19 16.64231 -23.82821 34954 ft 560 kts 121°
2026-04-25 17:19 16.60443 -23.75772 34946 ft 560 kts 121°
2026-04-25 17:20 16.56623 -23.68670 34944 ft 560 kts 121°
2026-04-25 17:20 16.52832 -23.61628 34945 ft 559 kts 121°
2026-04-25 17:21 16.49021 -23.54559 34942 ft 559 kts 121°
2026-04-25 17:21 16.45200 -23.47475 34939 ft 559 kts 121°
2026-04-25 17:22 16.42019 -23.41585 34937 ft 559 kts 121°
2026-04-25 17:22 16.37583 -23.33378 34937 ft 558 kts 121°
2026-04-25 17:23 16.33787 -23.26363 34937 ft 558 kts 121°
2026-04-25 17:23 16.29964 -23.19305 34937 ft 558 kts 121°
2026-04-25 17:24 16.26159 -23.12288 34938 ft 558 kts 121°
2026-04-25 17:24 16.22338 -23.05247 34939 ft 558 kts 121°
2026-04-25 17:25 16.18513 -22.98206 34940 ft 558 kts 121°
2026-04-25 17:25 16.14708 -22.91206 34941 ft 557 kts 121°
2026-04-25 17:26 16.10905 -22.84168 34940 ft 557 kts 121°
2026-04-25 17:26 16.07154 -22.77090 34938 ft 557 kts 120°
2026-04-25 17:27 16.03437 -22.70060 34935 ft 557 kts 120°
2026-04-25 17:27 16.00926 -22.65327 34935 ft 557 kts 120°
2026-04-25 17:28 15.95933 -22.55946 34937 ft 557 kts 120°
2026-04-25 17:28 15.92198 -22.48943 34934 ft 556 kts 120°
2026-04-25 17:29 15.88442 -22.41904 34946 ft 556 kts 120°
2026-04-25 17:29 15.84683 -22.34867 34929 ft 556 kts 120°
2026-04-25 17:30 15.80949 -22.27882 34923 ft 556 kts 120°
2026-04-25 17:30 15.77185 -22.20846 34922 ft 555 kts 120°
2026-04-25 17:31 15.73427 -22.13831 34934 ft 555 kts 120°
2026-04-25 17:31 15.69688 -22.06857 34935 ft 555 kts 120°
2026-04-25 17:32 15.65930 -21.99854 34914 ft 555 kts 120°
2026-04-25 17:32 15.62187 -21.92886 34930 ft 555 kts 120°
2026-04-25 17:33 15.58421 -21.85883 34929 ft 555 kts 120°
2026-04-25 17:33 15.54652 -21.78879 34911 ft 555 kts 120°
2026-04-25 17:34 15.50901 -21.71917 34912 ft 555 kts 120°
2026-04-25 17:34 15.47129 -21.64922 34926 ft 554 kts 120°
2026-04-25 17:35 15.43386 -21.57987 34921 ft 554 kts 120°
2026-04-25 17:35 15.39608 -21.50993 34905 ft 554 kts 120°
2026-04-25 17:36 15.35860 -21.44062 34922 ft 553 kts 120°
2026-04-25 17:36 15.32108 -21.37130 34910 ft 553 kts 120°
2026-04-25 17:37 15.28334 -21.30165 34908 ft 553 kts 120°
2026-04-25 17:37 15.24580 -21.23242 34911 ft 553 kts 120°
2026-04-25 17:38 15.22057 -21.18591 34909 ft 552 kts 120°
2026-04-25 17:38 15.17064 -21.09398 34888 ft 541 kts 120°
2026-04-25 17:39 15.13416 -21.02689 34908 ft 535 kts 120°
2026-04-25 17:39 15.09758 -20.95968 34902 ft 534 kts 120°
2026-04-25 17:40 15.06132 -20.89311 34903 ft 533 kts 120°
2026-04-25 17:40 15.02487 -20.82625 34907 ft 532 kts 120°
2026-04-25 17:41 14.98885 -20.76023 34903 ft 521 kts 120°
2026-04-25 17:41 14.95346 -20.69543 34902 ft 519 kts 120°
2026-04-25 17:42 14.91780 -20.63019 34901 ft 518 kts 120°
2026-04-25 17:42 14.88253 -20.56572 34903 ft 517 kts 120°
2026-04-25 17:43 14.84703 -20.50087 34900 ft 516 kts 120°
2026-04-25 17:43 14.81190 -20.43677 34897 ft 515 kts 120°
2026-04-25 17:44 14.78285 -20.38379 34900 ft 514 kts 120°
2026-04-25 17:44 14.74775 -20.31981 34899 ft 513 kts 120°
2026-04-25 17:45 14.72410 -20.27673 34902 ft 513 kts 120°
2026-04-25 17:45 14.67870 -20.19039 34895 ft 516 kts 111°
2026-04-25 17:46 14.65666 -20.12008 34894 ft 516 kts 106°
2026-04-25 17:46 14.63563 -20.04899 34896 ft 517 kts 107°
2026-04-25 17:47 14.61367 -19.97842 34894 ft 517 kts 108°
2026-04-25 17:47 14.59100 -19.90777 34888 ft 517 kts 108°
2026-04-25 17:48 14.56075 -19.81408 34889 ft 515 kts 108°
2026-04-25 17:48 14.54950 -19.77920 34751 ft 508 kts 108°
2026-04-25 17:49 14.53844 -19.74486 34394 ft 502 kts 108°
2026-04-25 17:49 14.52740 -19.71060 33635 ft 506 kts 108°
2026-04-25 17:49 14.51625 -19.67595 32698 ft 512 kts 107°
2026-04-25 17:49 14.50502 -19.64110 32217 ft 509 kts 107°
2026-04-25 17:50 14.49385 -19.60646 32044 ft 509 kts 107°
2026-04-25 17:50 14.48259 -19.57155 31919 ft 517 kts 107°
2026-04-25 17:50 14.47120 -19.53625 31896 ft 520 kts 107°
2026-04-25 17:51 14.44835 -19.46557 31876 ft 510 kts 107°
2026-04-25 17:51 14.43727 -19.43135 31764 ft 497 kts 107°
2026-04-25 17:51 14.42639 -19.39778 31486 ft 489 kts 107°
2026-04-25 17:51 14.41571 -19.36481 31226 ft 480 kts 107°
2026-04-25 17:52 14.40534 -19.33282 30977 ft 472 kts 107°
2026-04-25 17:52 14.39835 -19.31125 30811 ft 467 kts 107°
2026-04-25 17:52 14.38475 -19.26930 30499 ft 456 kts 107°
2026-04-25 17:52 14.37489 -19.23890 30201 ft 450 kts 107°
2026-04-25 17:53 14.36499 -19.20839 29739 ft 448 kts 107°
2026-04-25 17:53 14.35512 -19.17796 29154 ft 448 kts 107°
2026-04-25 17:53 14.34523 -19.14747 28546 ft 448 kts 107°
2026-04-25 17:53 14.33533 -19.11698 27987 ft 449 kts 107°
2026-04-25 17:54 14.32542 -19.08650 27438 ft 448 kts 107°
2026-04-25 17:54 14.31550 -19.05602 26882 ft 448 kts 107°
2026-04-25 17:54 14.30559 -19.02556 26354 ft 448 kts 107°
2026-04-25 17:54 14.29565 -18.99505 25815 ft 448 kts 107°
2026-04-25 17:55 14.28574 -18.96464 25287 ft 448 kts 108°
2026-04-25 17:55 14.27580 -18.93415 24762 ft 448 kts 108°
2026-04-25 17:55 14.26586 -18.90370 24214 ft 448 kts 108°
2026-04-25 17:55 14.25591 -18.87319 23674 ft 449 kts 108°
2026-04-25 17:56 14.24595 -18.84268 23062 ft 450 kts 108°
2026-04-25 17:56 14.23596 -18.81208 22383 ft 451 kts 108°
2026-04-25 17:56 14.22593 -18.78138 21689 ft 453 kts 108°
2026-04-25 17:56 14.21586 -18.75058 21089 ft 453 kts 108°
2026-04-25 17:57 14.20582 -18.71990 20630 ft 449 kts 109°
2026-04-25 17:57 14.19589 -18.68956 20244 ft 444 kts 109°
2026-04-25 17:57 14.18617 -18.65987 20174 ft 430 kts 109°
2026-04-25 17:57 14.17990 -18.64070 20121 ft 422 kts 109°
2026-04-25 17:58 14.16768 -18.60342 20012 ft 406 kts 109°
2026-04-25 17:58 14.15876 -18.57621 19924 ft 395 kts 109°
2026-04-25 17:58 14.15010 -18.54981 19859 ft 383 kts 109°
2026-04-25 17:58 14.14170 -18.52420 19757 ft 373 kts 109°
2026-04-25 17:59 14.13350 -18.49920 19614 ft 364 kts 109°
2026-04-25 17:59 14.12545 -18.47468 19362 ft 359 kts 109°
2026-04-25 17:59 14.11747 -18.45039 19008 ft 358 kts 109°
2026-04-25 17:59 14.10949 -18.42613 18630 ft 358 kts 109°
2026-04-25 18:00 14.10152 -18.40189 18283 ft 357 kts 109°
2026-04-25 18:00 14.09360 -18.37780 17890 ft 351 kts 110°
2026-04-25 18:00 14.08584 -18.35421 17292 ft 346 kts 110°
2026-04-25 18:00 14.07812 -18.33075 16640 ft 344 kts 110°
2026-04-25 18:01 14.07048 -18.30752 16044 ft 341 kts 110°
2026-04-25 18:01 14.06291 -18.28454 15469 ft 337 kts 110°
2026-04-25 18:01 14.05544 -18.26186 14911 ft 332 kts 110°
2026-04-25 18:01 14.04806 -18.23947 14385 ft 328 kts 110°
2026-04-25 18:02 14.04077 -18.21733 13846 ft 325 kts 111°
2026-04-25 18:02 14.03355 -18.19543 13277 ft 321 kts 111°
2026-04-25 18:02 14.02642 -18.17382 12703 ft 317 kts 111°
2026-04-25 18:02 14.01936 -18.15247 12124 ft 314 kts 111°
2026-04-25 18:03 14.01239 -18.13131 11567 ft 310 kts 111°
2026-04-25 18:03 14.00549 -18.11043 11050 ft 305 kts 111°
2026-04-25 18:03 13.99866 -18.08973 10897 ft 309 kts 111°
2026-04-25 18:03 13.99165 -18.06855 10773 ft 312 kts 110°
2026-04-25 18:04 13.98473 -18.04761 10750 ft 306 kts 110°
2026-04-25 18:04 13.97795 -18.02708 10767 ft 300 kts 110°
2026-04-25 18:04 13.97427 -18.00630 10749 ft 303 kts 86°
2026-04-25 18:04 13.97988 -17.98529 10758 ft 310 kts 61°
2026-04-25 18:05 13.99216 -17.96686 10758 ft 306 kts 53°
2026-04-25 18:05 14.00474 -17.94977 10743 ft 300 kts 53°
2026-04-25 18:05 14.01757 -17.93257 10744 ft 298 kts 53°
2026-04-25 18:05 14.03015 -17.91568 10743 ft 297 kts 53°
2026-04-25 18:06 14.04267 -17.89882 10748 ft 296 kts 53°
2026-04-25 18:06 14.05516 -17.88194 10749 ft 296 kts 53°
2026-04-25 18:06 14.06743 -17.86529 10747 ft 296 kts 53°
2026-04-25 18:06 14.07985 -17.84838 10747 ft 296 kts 53°
2026-04-25 18:07 14.09226 -17.83145 10746 ft 296 kts 53°
2026-04-25 18:07 14.10470 -17.81446 10748 ft 297 kts 53°
2026-04-25 18:07 14.11712 -17.79747 10747 ft 298 kts 53°
2026-04-25 18:07 14.12962 -17.78038 10741 ft 298 kts 53°
2026-04-25 18:08 14.14212 -17.76327 10745 ft 299 kts 53°
2026-04-25 18:08 14.15462 -17.74615 10743 ft 299 kts 53°
2026-04-25 18:08 14.16713 -17.72902 10744 ft 299 kts 53°
2026-04-25 18:08 14.17964 -17.71187 10744 ft 300 kts 53°
2026-04-25 18:09 14.19219 -17.69468 10734 ft 300 kts 53°
2026-04-25 18:09 14.20474 -17.67747 10737 ft 301 kts 53°
2026-04-25 18:09 14.21722 -17.66021 10732 ft 298 kts 57°
2026-04-25 18:09 14.22080 -17.65407 10710 ft 295 kts 66°
2026-04-25 18:10 14.23096 -17.62081 10733 ft 293 kts 78°
2026-04-25 18:10 14.23559 -17.60032 10507 ft 294 kts 78°
2026-04-25 18:10 14.24030 -17.57983 10197 ft 292 kts 78°
2026-04-25 18:10 14.24518 -17.55964 9841 ft 286 kts 77°
2026-04-25 18:11 14.25010 -17.54003 9153 ft 281 kts 76°
2026-04-25 18:11 14.25514 -17.52053 8365 ft 281 kts 75°
2026-04-25 18:11 14.26024 -17.50114 7626 ft 279 kts 74°
2026-04-25 18:11 14.26535 -17.48197 6926 ft 275 kts 73°
2026-04-25 18:12 14.27039 -17.46319 6313 ft 269 kts 72°
2026-04-25 18:12 14.27539 -17.44465 5516 ft 268 kts 71°
2026-04-25 18:12 14.28032 -17.42649 4819 ft 264 kts 71°
2026-04-25 18:12 14.28523 -17.40844 4196 ft 258 kts 71°
2026-04-25 18:13 14.29007 -17.39064 3845 ft 257 kts 71°
2026-04-25 18:13 14.29496 -17.37272 3455 ft 261 kts 71°
2026-04-25 18:13 14.29982 -17.35485 3162 ft 255 kts 71°
2026-04-25 18:14 14.30930 -17.31997 2732 ft 250 kts 71°
2026-04-25 18:14 14.31392 -17.30294 2711 ft 244 kts 71°
2026-04-25 18:14 14.31846 -17.28623 2727 ft 240 kts 71°
2026-04-25 18:14 14.32295 -17.26970 2758 ft 239 kts 71°
2026-04-25 18:15 14.32750 -17.25300 2915 ft 246 kts 71°
2026-04-25 18:15 14.33213 -17.23599 2951 ft 246 kts 71°
2026-04-25 18:15 14.33675 -17.21902 2958 ft 244 kts 71°
2026-04-25 18:15 14.34131 -17.20220 2963 ft 243 kts 71°
2026-04-25 18:16 14.34586 -17.18541 2984 ft 242 kts 71°
2026-04-25 18:16 14.35039 -17.16870 2963 ft 242 kts 71°
2026-04-25 18:16 14.35942 -17.13542 2972 ft 240 kts 71°
2026-04-25 18:17 14.36391 -17.11888 2961 ft 239 kts 71°
2026-04-25 18:17 14.36837 -17.10241 2993 ft 237 kts 71°
2026-04-25 18:17 14.37353 -17.08645 2954 ft 232 kts 58°
2026-04-25 18:17 14.38476 -17.07481 2972 ft 231 kts 28°
2026-04-25 18:18 14.40005 -17.07003 2974 ft 232 kts
2026-04-25 18:18 14.41608 -17.06965 2957 ft 228 kts 359°
2026-04-25 18:18 14.43169 -17.07006 2960 ft 219 kts 359°
2026-04-25 18:18 14.44652 -17.07042 2952 ft 207 kts 359°
2026-04-25 18:19 14.46062 -17.07068 2948 ft 199 kts 359°
2026-04-25 18:19 14.47434 -17.07087 2965 ft 197 kts 359°
2026-04-25 18:19 14.48815 -17.07104 2975 ft 195 kts 359°
2026-04-25 18:19 14.50117 -17.07118 2730 ft 185 kts 360°
2026-04-25 18:20 14.51390 -17.07133 2314 ft 180 kts
2026-04-25 18:20 14.52621 -17.07144 1975 ft 172 kts 360°
2026-04-25 18:20 14.53805 -17.07156 2037 ft 176 kts
2026-04-25 18:20 14.55045 -17.07167 1999 ft 175 kts
2026-04-25 18:21 14.56225 -17.07177 1975 ft 163 kts
2026-04-25 18:21 14.57306 -17.07189 1909 ft 149 kts
2026-04-25 18:21 14.58316 -17.07203 1813 ft 147 kts
2026-04-25 18:21 14.59371 -17.07219 1707 ft 154 kts
2026-04-25 18:22 14.60438 -17.07220 1575 ft 151 kts
2026-04-25 18:22 14.60792 -17.07229 1509 ft 151 kts
2026-04-25 18:22 14.62523 -17.07238 1178 ft 150 kts
2026-04-25 18:22 14.63571 -17.07246 980 ft 151 kts 360°
2026-04-25 18:23 14.64616 -17.07256 683 ft 148 kts 359°
2026-04-25 18:23 14.65624 -17.07267 394 ft 141 kts 358°
2026-04-25 18:23 14.66555 -17.07271 292 ft 122 kts 358°
2026-04-25 18:23 14.67228 -17.07282 276 ft 54 kts 359°
2026-04-25 18:24 14.67550 -17.07285 272 ft 46 kts
2026-04-25 18:24 14.67798 -17.07187 271 ft 21 kts 27°
2026-04-25 18:24 14.67839 -17.07164 271 ft 0 kts 29°
2026-04-25 18:25 14.67848 -17.07159 271 ft 7 kts 29°
2026-04-25 18:26 14.67934 -17.07112 271 ft 18 kts 19°
2026-04-25 18:26 14.68046 -17.07080 270 ft 13 kts 47°
2026-04-25 18:26 14.68049 -17.06992 270 ft 13 kts 101°
2026-04-25 18:26 14.68043 -17.06915 270 ft 0 kts 90°
2026-04-25 18:27 14.68043 -17.06912 270 ft 2 kts 90°
2026-04-25 18:27 14.68043 -17.06908 270 ft 0 kts 90°